Regional Weather Roundup
Issued by NWS Charleston, SC

Current Version | Previous Version | Graphics & Text | Print | Product List | Glossary On
Versions: 1 2 3 4 5 6 7 8 9 10 11 12 13 14 15 16 17 18 19 20 21 22 23 24 25 26 27 28 29 30 31 32 33 34 35 36 37 38 39 40 41 42 43 44 45 46 47 48 49 50
000
ASUS42 KCHS 121610
RWRCHS
REGIONAL WEATHER ROUNDUP
NATIONAL WEATHER SERVICE CHARLESTON SC
1200 PM EDT SAT JUL 12 2014

NOTE: "FAIR" INDICATES FEW OR NO CLOUDS BELOW 12,000 FEET WITH NO
SIGNIFICANT WEATHER AND/OR OBSTRUCTIONS TO VISIBILITY.

NOT ALL STATIONS ARE QUALITY CONTROLLED BY THE NATIONAL
WEATHER SERVICE. USE DATA WITH CAUTION...ESPECIALLY
DEWPOINT OBSERVATIONS.

SCZ027-030-031-034>040-042>050-121700-
...SOUTH CAROLINA...

CITY           SKY/WX    TMP DP  RH WIND       PRES   REMARKS
N CHARLESTON   PTSUNNY   83  74  74 W9        30.20F
WATERFRONT PRK   N/A     82 N/A N/A CALM        N/A
FORT JOHNSON   NOT AVBL
MOUNT PLEASANT FAIR      86  75  70 SE5       30.20S HX  95
JOHNS ISLAND   PTSUNNY   82  64  54 S7        30.21F
PINOPOLIS        N/A     88  72  58 CALM      30.12S HX  94
MONCKS CORNER    N/A     88  75  66 N6        30.20S HX  97
SUMMERVILLE    RAIN      73  73 100 SE5       30.22S
BEAUFORT MCAS  CLOUDY    80  72  76 CALM      30.20F
BEAUFORT ARPT  PTSUNNY   79  73  83 CALM      30.20F
HILTON HEAD IS NOT AVBL
GEORGETOWN     NOT AVBL
WALTERBORO     PTSUNNY   81  81 100 S6        30.21F HX  91
ORANGEBURG     MOSUNNY   86  69  56 E6        30.21F HX  90
BARNWELL       FAIR      84  73  70 E5        30.21F HX  91
AIKEN          PTSUNNY   86  72  62 E8        30.25S HX  92
MANNING        FAIR      86  73  66 CALM      30.20F HX  93
KINGSTREE      NOT AVBL
COLUMBIA       PTSUNNY   85  70  60 SE3       30.20F
SUMTER         NOT AVBL
FLORENCE       MOSUNNY   85  70  60 VRB6      30.21S
MYRTLE BEACH   PTSUNNY   81  73  78 NE7       30.22R
N MYRTLE BEACH CLOUDY    79  72  79 VRB3      30.22R

$$

GAZ063-065-086>088-099>101-113>116-118-119-134-136>141-150-121700-
...GEORGIA...

CITY           SKY/WX    TMP DP  RH WIND       PRES   REMARKS
SAVANNAH ARPT  PTSUNNY   81  71  71 E8        30.21S
HUNTER AAF     NOT AVBL
FORT STEWART   NOT AVBL
STATESBORO     NOT AVBL
SYLVANIA       MOSUNNY   81  74  81 E7        30.22S
CLAXTON        FAIR      82  75  78 E5        30.20S
THOMSON        PTSUNNY   87  76  70 NE3       30.26S HX  96
AUGUSTA-BUSH   MOSUNNY   88  70  55 E7        30.19F HX  93
AUGUSTA-DANIEL SUNNY     86  69  56 VRB5      30.22F HX  90
SWAINSBORO     PTSUNNY   88  73  62 E5        30.20F HX  96
VIDALIA          N/A     84  72  65 NE5       30.19F
ALMA           MOSUNNY   85  70  60 VRB5      30.18F
WAYCROSS       MOSUNNY   87  75  66 CALM      30.18S HX  97
JESUP          NOT AVBL
BRUNSWICK      CLOUDY    79  72  78 CALM      30.21R
SAINT SIMONS   CLOUDY    77  73  87 E7        30.20S

$$

SCZ027-028-034-036>038-045-046-048>050-GAZ119-141-121700-
...LAKE AND SUPPLEMENTAL COASTAL OBSERVATIONS...

STATION/POSITION TIME  TEMP    WIND        PRES    WAVE   SWELL
                       AIR SEA DIR/SP/G            HT/PER HT/PER/DIR
                 (UTC) (F)     (DEG/KT/KT) (MB)    (FT/S) (FT/S/D)
UPR LAKE MARION  NOT AVBL
WINYAH BAY       1500   79      70/ 11     1022.0S
LAKE MURRAY      1500   82     140/  6/  8 1022.4S
ACE BASIN NERRS  1500   75     280/  2     1023.0S
FORT PULASKI     1600   77 78   60/  5/  7   N/A
SAPELO ISLAND    1500   74      70/  3     1023.0S

$$

ANZ835-935-AMZ111-154-330-350-352-354-374-450-454-472-121700-
...C-MAN AND BUOY OBSERVATIONS...

STATION/POSITION TIME  TEMP    WIND        PRES    WAVE   SWELL
                       AIR SEA DIR/SP/G            HT/PER HT/PER/DIR
                 (UTC) (F)     (DEG/KT/KT) (MB)    (FT/S) (FT/S/D)
FOLLY BEACH CMAN 1500   80     160/  2/  3 1023.6R
BUOY 41004       1600   79 82  140/  8/ 10 1022.9R   2/ 7   2/ 7
BUOY 41008       1600   74 84  350/ 12/ 14 1022.7R   2/10   2/150/10
5E ST. MARYS GA  1600      83                N/A     2/10
FRYING PAN BUOY  NOT AVBL
BUOY 41025       1600          VRB  8/ 10  1023.0R   2/ 8   2/100/ 8
CAPE LOOKOUT NC  1500   78      50/  9/ 10 1023.3R
BUOY 41002       1513   80 83   90/  4/  4 1023.7R   3/ 8   3/100/ 8
BUOY 41010       1600   83 83  130/  8/ 10 1021.8F   3/ 9   2/ 80/ 9
BUOY 41012       NOT AVBL
ST AUGUSTINE FL  1600   81     110/  6/  7 1022.1F
CAPERS NEARSHORE 1500   79     180/  2/  4   N/A
FRIPP NEARSHORE  1500   74     270/  4/  4   N/A


$$



USA.gov is the U.S. government's official web portal to all federal, state and local government web resources and services.